Location: Madden
(51.3728°N, 114.3297°W)
Time: 07:10:55
(UTC+00:00)

PCSat - Pass Details

Date: 08 December 2023
Orbit: 784 x 791 km, 67.0° (Epoch: 02 March)

Event Time Altitude Azimuth Distance (km) Brightness Sun altitude
Exits shadow 14:18:48 13° 306° (NW) 2,173 11.2 -10.3°
Maximum altitude 14:21:43 18° 342° (NNW) 1,842 11.1 -9.8°
Drops below altitude 10° 14:25:27 10° 26° (NNE) 2,364 12.1 -9.3°
Sets 14:28:38 0° 45° (NE) 3,296 13.0 -8.9°
